Flag for U.S.A. Weather past 2 weeks in Berkeley, California, U.S.A.

Now
68 °F

Overcast.


Feels Like: 68 °F
Forecast: 63 / 73 °F
Wind: 6 mph from West

Location: Metro Oakland International Airport

Current Time: Aug 29, 2015 at 5:46:03 AM

Latest Report: Aug 29, 2015 at 4:53 AM


Visibility: 10 mi

Pressure: 29.94 "Hg

Humidity: 82%

Dew point: 62 °F

Location of BerkeleyLocation

Historic Weather in Berkeley — Graph

°F

Berkeley temperature yesterday

Maximum temperature yesterday: 89 °F (at 2:53 PM)
Minimum temperature yesterday: 62 °F (at 5:53 AM)
Average temperature yesterday: 72 °F

Past Weeks' High & Low Weather Summary

 TemperatureHumidityPressure
High92 °F (Aug 15, 2:53 PM)87% (Aug 15, 3:53 AM)30.09 "Hg (Aug 15, 3:53 AM)
Low58 °F (Aug 15, 3:53 AM)25% (Aug 15, 1:53 PM)29.81 "Hg (Aug 16, 4:53 PM)
Average68 °F68%29.94 "Hg
* Reported Aug 14 4:53 AM — Aug 29 4:53 AM, Berkeley, Weather by CustomWeather, © 2015

Note: Actual official high and low records may vary slightly from our data, if they occured in-between our weather recording intervals... More about our weather records

Advertising

Berkeley weather history for previous 24 hours

 ConditionsComfort  
Time TempWeatherWind HumidityBarometerVisibility
4:53 AM
Sat, Aug 29
68 °FOvercast.6 mph82%29.94 "Hg10 mi
3:53 AM66 °FPartly cloudy.No wind87%29.93 "Hg10 mi
2:53 AM66 °FPassing clouds.8 mph87%29.93 "Hg10 mi
1:53 AM66 °FPassing clouds.10 mph87%29.92 "Hg10 mi
12:53 AM65 °FPassing clouds.6 mph87%29.92 "Hg10 mi
11:53 PM
Fri, Aug 28
65 °FPassing clouds.7 mph87%29.91 "Hg10 mi
10:53 PM66 °FLow clouds.12 mph87%29.91 "Hg10 mi
9:53 PM66 °FPassing clouds.8 mph87%29.90 "Hg10 mi
8:53 PM67 °FPassing clouds.9 mph85%29.90 "Hg10 mi
7:53 PM67 °FBroken clouds.14 mph81%29.88 "Hg10 mi
6:53 PM68 °FBroken clouds.9 mph78%29.87 "Hg10 mi
5:53 PM72 °FBroken clouds.17 mph68%29.88 "Hg10 mi
4:53 PM80 °FBroken clouds.23 mph49%29.85 "Hg10 mi
3:53 PM81 °FScattered clouds.12 mph49%29.85 "Hg10 mi
2:53 PM89 °FScattered clouds.12 mph31%29.86 "Hg10 mi
1:53 PM87 °FScattered clouds.12 mph37%29.88 "Hg10 mi
12:53 PM86 °FScattered clouds.8 mph36%29.89 "Hg10 mi
11:53 AM82 °FPartly sunny.8 mph40%29.90 "Hg10 mi
10:53 AM80 °FPartly sunny.6 mph44%29.91 "Hg10 mi
9:53 AM74 °FBroken clouds.6 mph62%29.91 "Hg10 mi
8:53 AM73 °FBroken clouds.3 mph57%29.91 "Hg10 mi
7:53 AM71 °FOvercast.No wind57%29.92 "Hg10 mi
6:53 AM63 °FHigh level clouds.3 mph70%29.90 "Hg10 mi
5:53 AM62 °FPassing clouds.No wind73%29.90 "Hg10 mi
Weather by CustomWeather, © 2015

See weather overviewHow to use our weather pages